When you browse on this site, cookies collect data to enhance your experience and personalize the content and advertising you see.
Visit our Privacy Policy to learn more. By continuing to use the site, you agree to this use of cookies and data.
  • In Hungary
  • List of Countries
  • For 7 days
  • Water Temperature
  • Satellite Maps
  • Weather Map
  • News
  • Weather Widgets
  • user-avatar
    Login

    Hourly Weather Charkhi Dadri

    Today, 20 January, Sunday

    Time Temperature Precipitation Wind Pressure Humidity
    00:00 +16°C° 0 mm 1 mps 742 mmHg 48%
    01:00 +15°C° 0 mm 1 mps 742 mmHg 50%
    02:00 +15°C° 0 mm 1 mps 742 mmHg 51%
    03:00 +14°C° 0 mm 1 mps 742 mmHg 52%
    04:00 +14°C° 0 mm 1 mps 742 mmHg 54%
    05:00 +14°C° 0 mm 1 mps 742 mmHg 55%
    06:00 +14°C° 0 mm 1 mps 742 mmHg 56%
    07:00 +15°C° 0 mm 1 mps 743 mmHg 58%
    08:00 +16°C° 0 mm 2 mps 743 mmHg 59%
    09:00 +19°C° 0 mm 1 mps 743 mmHg 52%
    10:00 +22°C° 0 mm 1 mps 744 mmHg 46%
    11:00 +24°C° 0 mm 1 mps 744 mmHg 39%
    12:00 +25°C° 0 mm 1 mps 743 mmHg 37%
    13:00 +27°C° 0 mm 1 mps 742 mmHg 34%
    14:00 +26°C° 0 mm 0 mps 742 mmHg 31%
    15:00 +26°C° 0 mm 1 mps 741 mmHg 36%
    16:00 +25°C° 0 mm 2 mps 741 mmHg 42%
    17:00 +23°C° 0 mm 2 mps 741 mmHg 47%
    18:00 +21°C° 0 mm 2 mps 741 mmHg 49%
    19:00 +20°C° 0 mm 3 mps 741 mmHg 51%
    20:00 +19°C° 0 mm 3 mps 742 mmHg 53%
    21:00 +19°C° 0 mm 3 mps 742 mmHg 55%
    22:00 +18°C° 0 mm 3 mps 742 mmHg 57%
    23:00 +18°C° 0 mm 3 mps 741 mmHg 59%

    Tomorrow, 21 January, Monday

    Time Temperature Precipitation Wind Pressure Humidity
    00:00 +18°C° 0 mm 3 mps 741 mmHg 59%
    01:00 +17°C° 0 mm 3 mps 741 mmHg 58%
    02:00 +17°C° 0 mm 3 mps 741 mmHg 58%
    03:00 +17°C° 0 mm 3 mps 741 mmHg 58%
    04:00 +17°C° 0 mm 3 mps 740 mmHg 57%
    05:00 +16°C° 0 mm 3 mps 740 mmHg 57%
    06:00 +17°C° 0 mm 3 mps 741 mmHg 58%
    07:00 +17°C° 0 mm 4 mps 741 mmHg 59%
    08:00 +17°C° 0 mm 4 mps 742 mmHg 60%
    09:00 +17°C° 0 mm 5 mps 742 mmHg 57%
    10:00 +20°C° 0 mm 5 mps 742 mmHg 54%
    11:00 +21°C° 0 mm 6 mps 742 mmHg 50%
    12:00 +22°C° 0 mm 6 mps 741 mmHg 49%
    13:00 +23°C° 0 mm 6 mps 740 mmHg 47%
    14:00 +24°C° 0 mm 6 mps 740 mmHg 45%
    15:00 +23°C° 0 mm 5 mps 739 mmHg 50%
    16:00 +22°C° 0 mm 4 mps 739 mmHg 55%
    17:00 +21°C° 0 mm 4 mps 738 mmHg 60%
    18:00 +20°C° 0 mm 4 mps 738 mmHg 61%
    19:00 +20°C° 0 mm 4 mps 738 mmHg 62%
    20:00 +19°C° 0 mm 4 mps 739 mmHg 64%
    21:00 +18°C° 0.2 mm 4 mps 738 mmHg 67%
    22:00 +18°C° 0.2 mm 4 mps 738 mmHg 70%
    23:00 +17°C° 0.2 mm 4 mps 738 mmHg 74%

    Day after tomorrow, 22 January, Tuesday

    Time Temperature Precipitation Wind Pressure Humidity
    00:00 +16°C° 0.6 mm 5 mps 738 mmHg 78%
    01:00 +15°C° 0.6 mm 5 mps 738 mmHg 82%
    02:00 +14°C° 0.6 mm 6 mps 738 mmHg 85%
    03:00 +14°C° 0 mm 6 mps 738 mmHg 85%
    04:00 +14°C° 0 mm 7 mps 738 mmHg 85%
    05:00 +14°C° 0 mm 7 mps 738 mmHg 85%
    06:00 +14°C° 0 mm 6 mps 739 mmHg 86%
    07:00 +14°C° 0 mm 5 mps 740 mmHg 86%
    08:00 +14°C° 0 mm 4 mps 740 mmHg 87%
    09:00 +17°C° 0 mm 4 mps 741 mmHg 78%
    10:00 +18°C° 0 mm 4 mps 741 mmHg 70%
    11:00 +20°C° 0 mm 4 mps 742 mmHg 62%
    12:00 +21°C° 0 mm 4 mps 741 mmHg 56%
    13:00 +22°C° 0 mm 4 mps 741 mmHg 49%
    14:00 +23°C° 0 mm 4 mps 740 mmHg 43%
    15:00 +22°C° 0 mm 3 mps 740 mmHg 45%
    16:00 +21°C° 0 mm 2 mps 740 mmHg 48%
    17:00 +21°C° 0 mm 1 mps 740 mmHg 50%
    18:00 +19°C° 0 mm 2 mps 741 mmHg 55%
    19:00 +18°C° 0 mm 2 mps 741 mmHg 60%
    20:00 +17°C° 0 mm 2 mps 742 mmHg 66%
    21:00 +16°C° 0.1 mm 2 mps 742 mmHg 73%
    22:00 +15°C° 0.1 mm 2 mps 742 mmHg 80%
    23:00 +14°C° 0.1 mm 2 mps 743 mmHg 87%

    23 January, Wednesday

    Time Temperature Precipitation Wind Pressure Humidity
    00:00 +14°C° 0 mm 2 mps 742 mmHg 88%
    01:00 +14°C° 0 mm 2 mps 742 mmHg 90%
    02:00 +13°C° 0 mm 2 mps 742 mmHg 91%
    03:00 +13°C° 0.3 mm 2 mps 742 mmHg 92%
    04:00 +13°C° 0.3 mm 1 mps 742 mmHg 93%
    05:00 +12°C° 0.3 mm 1 mps 742 mmHg 94%
    06:00 +13°C° 0.2 mm 1 mps 742 mmHg 92%
    07:00 +13°C° 0.2 mm 1 mps 743 mmHg 90%
    08:00 +13°C° 0.2 mm 1 mps 743 mmHg 88%
    09:00 +15°C° 0.1 mm 2 mps 743 mmHg 82%
    10:00 +17°C° 0.1 mm 2 mps 744 mmHg 75%
    11:00 +19°C° 0.1 mm 3 mps 744 mmHg 68%
    12:00 +20°C° 1.1 mm 3 mps 743 mmHg 65%
    13:00 +20°C° 1.1 mm 3 mps 742 mmHg 62%
    14:00 +21°C° 1.1 mm 3 mps 742 mmHg 59%
    15:00 +20°C° 0.5 mm 3 mps 742 mmHg 65%
    16:00 +19°C° 0.5 mm 2 mps 741 mmHg 70%
    17:00 +18°C° 0.5 mm 2 mps 741 mmHg 76%
    18:00 +17°C° 0.3 mm 2 mps 742 mmHg 80%
    19:00 +16°C° 0.3 mm 2 mps 742 mmHg 83%
    20:00 +15°C° 0.3 mm 1 mps 743 mmHg 86%
    21:00 +14°C° 0 mm 1 mps 743 mmHg 87%
    22:00 +14°C° 0 mm 1 mps 744 mmHg 89%
    23:00 +13°C° 0 mm 1 mps 744 mmHg 90%

    24 January, Thursday

    Time Temperature Precipitation Wind Pressure Humidity
    00:00 +13°C° 0 mm 1 mps 744 mmHg 89%
    01:00 +13°C° 0 mm 1 mps 744 mmHg 89%
    02:00 +12°C° 0 mm 1 mps 744 mmHg 88%
    03:00 +12°C° 0 mm 1 mps 744 mmHg 88%
    04:00 +11°C° 0 mm 1 mps 744 mmHg 88%
    05:00 +11°C° 0 mm 1 mps 744 mmHg 88%
    06:00 +12°C° 0 mm 1 mps 745 mmHg 86%
    07:00 +12°C° 0 mm 1 mps 745 mmHg 83%
    08:00 +13°C° 0 mm 1 mps 746 mmHg 81%
    09:00 +15°C° 0 mm 1 mps 746 mmHg 75%
    10:00 +18°C° 0 mm 1 mps 746 mmHg 69%
    11:00 +19°C° 0 mm 2 mps 746 mmHg 62%
    12:00 +19°C° 0 mm 2 mps 746 mmHg 58%
    13:00 +20°C° 0 mm 2 mps 745 mmHg 53%
    14:00 +21°C° 0 mm 2 mps 744 mmHg 48%
    15:00 +20°C° 0 mm 2 mps 744 mmHg 51%
    16:00 +19°C° 0 mm 2 mps 743 mmHg 55%
    17:00 +18°C° 0 mm 2 mps 743 mmHg 58%
    18:00 +17°C° 0 mm 2 mps 744 mmHg 61%
    19:00 +16°C° 0 mm 2 mps 744 mmHg 63%
    20:00 +14°C° 0 mm 2 mps 745 mmHg 66%
    21:00 +14°C° 0 mm 2 mps 745 mmHg 68%
    22:00 +14°C° 0 mm 2 mps 745 mmHg 69%
    23:00 +13°C° 0 mm 2 mps 745 mmHg 71%

    25 January, Friday

    Time Temperature Precipitation Wind Pressure Humidity
    00:00 +13°C° 0 mm 2 mps 744 mmHg 75%
    01:00 +12°C° 0 mm 2 mps 744 mmHg 79%
    02:00 +12°C° 0 mm 2 mps 744 mmHg 83%
    03:00 +10°C° 0 mm 2 mps 743 mmHg 86%
    04:00 +10°C° 0 mm 2 mps 743 mmHg 88%
    05:00 +11°C° 0 mm 1 mps 743 mmHg 90%
    06:00 +11°C° 0 mm 1 mps 744 mmHg 89%
    07:00 +12°C° 0 mm 1 mps 744 mmHg 87%
    08:00 +12°C° 0 mm 1 mps 745 mmHg 86%
    09:00 +14°C° 0 mm 2 mps 745 mmHg 77%
    10:00 +16°C° 0 mm 2 mps 745 mmHg 68%
    11:00 +18°C° 0 mm 2 mps 746 mmHg 59%
    12:00 +19°C° 0 mm 2 mps 745 mmHg 54%
    13:00 +19°C° 0 mm 2 mps 744 mmHg 49%
    14:00 +20°C° 0 mm 2 mps 743 mmHg 44%
    15:00 +19°C° 0 mm 2 mps 743 mmHg 47%
    16:00 +18°C° 0 mm 2 mps 743 mmHg 50%
    17:00 +17°C° 0 mm 2 mps 743 mmHg 54%
    18:00 +16°C° 0 mm 2 mps 744 mmHg 56%
    19:00 +15°C° 0 mm 1 mps 744 mmHg 58%
    20:00 +14°C° 0 mm 1 mps 744 mmHg 61%
    21:00 +13°C° 0 mm 1 mps 745 mmHg 64%
    22:00 +13°C° 0 mm 1 mps 745 mmHg 68%
    23:00 +12°C° 0 mm 1 mps 745 mmHg 72%
    Show more